Wind_Speed
6 7 17 24 26 26 25 24 24 24 23 22 21 21 20 19 16 14 12 10 11 10 10 10 9 8 8 8 8 9 10 11 12 12 12 13 12 10 10 12 11 12 11
11 9 15 25 27 27 25 24 23 24 24 23 21 20 20 19 16 13 11 10 10 10 10 10 9 8 8 9 9 10 13 14 12 12 11 11 10 8 8 9 10 12 11
12 10 17 26 28 29 28 26 25 25 25 24 23 22 20 18 15 12 10 9 8 8 9 10 8 8 8 9 9 12 16 13 10 8 7 7 9 8 7 8 9 9 10
9 10 17 26 28 28 28 27 26 27 27 25 23 22 20 17 14 12 10 9 8 9 10 10 9 8 8 9 11 14 15 10 8 9 12 8 6 7 6 5 8 11 9
12 10 18 26 27 27 27 27 27 27 28 26 23 21 19 17 15 13 10 8 8 12 12 10 8 8 9 11 13 15 13 10 9 6 12 6 4 7 7 6 6 6 8
14 10 19 25 27 26 24 24 25 27 28 28 25 22 20 19 17 14 12 8 7 10 10 9 7 7 10 13 16 17 12 9 10 6 7 6 2 5 6 4 4 4 5
17 12 19 24 26 26 25 23 24 25 26 27 25 24 23 21 19 18 15 12 10 11 11 9 8 9 12 16 20 11 10 6 6 2 2 7 3 5 4 2 2 2 2
18 15 16 23 27 27 25 24 24 24 24 24 25 25 24 24 22 19 15 14 12 14 13 11 10 11 13 17 19 11 13 10 6 2 5 7 8 6 2 2 2 2 2
16 17 16 20 25 26 27 26 26 26 26 25 25 25 25 24 22 19 17 14 15 15 12 13 13 13 14 19 19 13 16 8 4 3 8 12 11 8 5 2 2 0 1
16 16 15 20 23 28 28 28 28 28 27 28 28 28 26 24 22 18 18 17 17 16 14 14 14 15 17 21 24 17 16 12 7 5 4 8 7 6 3 1 2 2 3
20 19 18 19 25 29 30 30 29 28 29 29 30 29 29 26 22 20 19 17 18 15 13 14 16 17 19 24 25 20 16 14 9 5 5 7 5 8 5 3 2 2 2
25 24 23 21 24 31 33 32 32 31 30 31 31 31 30 26 22 22 20 20 19 16 17 18 19 19 22 25 27 21 15 12 9 5 7 2 6 8 6 5 4 4 4
26 27 27 24 24 31 35 35 35 34 33 32 32 32 29 28 27 24 24 23 22 20 20 22 23 22 27 28 27 22 18 16 13 10 7 4 8 7 6 6 5 5 5
27 26 26 24 25 28 33 36 38 37 36 36 34 34 33 31 29 26 25 23 22 21 21 21 23 23 28 26 24 23 20 16 15 13 11 9 10 12 12 13 10 9 9
29 27 28 27 26 28 34 36 38 39 39 39 37 35 34 31 29 28 26 25 23 23 23 25 24 26 27 24 24 23 21 16 14 15 15 14 5 8 13 12 14 14 14
38 34 30 28 30 33 36 38 39 39 40 40 38 38 36 32 32 30 27 26 26 26 28 29 26 27 30 25 24 20 16 15 15 18 19 15 9 6 13 13 10 11 10
35 40 35 29 34 34 39 39 40 40 40 41 41 38 37 34 34 34 33 29 29 28 28 29 27 26 27 27 23 19 18 17 17 17 16 14 12 9 8 13 14 10 11
22 31 37 34 33 31 32 37 42 41 41 43 39 38 38 36 39 37 30 29 29 28 28 29 28 30 30 28 22 22 22 20 18 18 18 17 13 12 11 10 16 16 12
34 33 39 36 34 30 29 34 39 43 42 41 37 37 38 37 35 33 30 30 31 31 31 32 31 32 34 31 27 24 23 20 19 18 17 14 14 11 10 9 14 17 16
16 34 33 36 33 33 35 33 39 43 40 38 38 38 39 40 42 40 38 35 35 34 32 32 33 33 34 36 34 26 21 18 14 14 14 14 11 11 10 10 12 10 12
18 26 32 35 33 33 36 35 37 43 43 40 40 41 40 39 38 39 36 34 34 36 36 37 37 35 37 37 38 28 23 21 20 18 14 13 13 12 12 12 12 14 13
21 27 32 32 28 23 25 26 40 46 47 42 42 43 43 42 42 41 39 37 38 38 39 40 42 41 39 39 40 37 21 17 16 18 18 16 14 14 13 12 10 12 17
8 18 17 18 19 16 19 21 29 38 42 42 42 43 43 43 42 42 42 44 43 40 41 44 47 45 46 43 45 31 19 12 25 16 16 20 18 15 13 10 9 11 13
26 3 6 14 17 17 18 17 23 32 36 35 41 43 44 47 45 42 44 44 43 43 45 48 48 48 46 48 46 25 24 23 19 19 21 19 18 18 17 17 15 13 12
20 14 13 14 12 19 20 19 16 21 26 31 32 41 46 48 47 46 44 45 44 45 47 52 53 53 48 47 50 34 26 20 30 31 32 28 20 17 17 18 18 16 12
22 19 20 20 18 13 20 25 21 18 20 27 32 35 40 45 47 48 46 47 46 47 49 54 55 54 51 50 49 41 34 35 35 32 27 34 29 21 17 14 17 18 15
Wind_Direction
188 174 174 178 176 174 172 169 168 168 169 167 164 161 160 160 160 154 147 141 137 134 129 120 118 117 114 111 106 101 95 92 86 76 75 81 80 74 69 56 67 73 74
228 184 180 184 183 180 178 176 174 175 174 172 169 168 165 165 163 154 147 142 142 142 131 121 119 114 109 103 99 96 93 96 99 82 95 92 91 86 73 64 68 75 77
219 196 190 189 187 184 182 179 179 180 179 178 176 174 171 169 164 161 154 152 150 140 131 130 127 118 112 106 101 98 107 116 103 94 101 101 103 97 84 76 71 76 77
218 204 197 193 192 188 187 183 182 181 181 181 180 179 176 172 172 170 166 164 158 153 145 140 134 125 113 103 101 110 118 130 116 99 127 125 97 97 103 90 81 77 77
212 214 197 195 196 193 191 188 185 184 183 184 185 184 182 181 183 182 181 182 161 160 154 142 135 126 117 111 110 121 127 141 105 105 135 118 70 100 102 97 95 65 61
206 200 192 195 198 195 194 192 188 187 186 186 187 189 187 188 189 189 190 194 183 167 155 143 136 129 122 114 119 127 135 146 124 121 166 132 160 109 116 103 80 59 55
203 180 183 195 199 197 195 194 191 190 190 189 190 190 191 191 191 190 187 192 183 168 156 149 149 142 129 122 128 120 151 164 154 150 214 173 138 116 147 139 116 87 61
194 196 187 191 198 199 198 194 194 193 194 196 195 195 195 194 194 195 198 199 177 173 166 160 160 150 136 127 138 121 128 152 155 176 145 114 109 102 152 170 148 135 98
196 198 207 197 199 201 200 198 196 195 198 200 200 199 201 201 199 199 202 208 181 174 173 164 164 152 140 140 141 127 143 161 204 148 155 135 133 129 111 163 201 112 34
205 210 208 203 202 204 203 200 199 198 198 198 202 202 203 203 203 207 221 199 181 184 178 169 164 155 146 151 151 134 145 165 192 131 113 136 152 123 124 31 28 315 314
209 219 214 205 206 205 208 204 202 203 200 204 202 204 204 203 202 215 222 198 190 190 177 172 166 160 153 157 160 164 176 181 180 175 171 197 113 102 109 100 79 48 29
210 218 216 211 209 205 207 208 206 205 204 203 202 205 204 203 206 208 212 201 199 190 183 176 172 163 159 162 167 171 179 194 204 193 157 179 127 102 89 80 76 79 72
217 216 218 211 207 207 209 208 210 208 207 208 206 207 207 202 208 214 216 209 199 192 188 179 175 166 161 166 173 181 182 195 213 206 181 167 113 92 90 80 73 88 88
223 230 222 212 211 208 215 211 213 212 210 212 211 210 210 207 209 217 223 220 204 197 187 183 178 167 173 176 183 186 192 197 214 217 197 223 117 93 87 88 84 81 93
233 238 231 217 214 214 218 218 216 214 212 212 209 211 213 216 225 218 221 218 206 196 188 182 183 170 173 176 186 197 197 201 224 215 194 221 176 122 107 96 97 99 99
237 234 229 220 209 213 222 224 220 218 215 215 211 213 214 218 224 217 220 218 204 198 189 190 189 179 180 181 189 193 207 208 207 203 200 192 182 181 117 108 103 103 99
244 234 226 223 206 211 219 226 229 226 220 216 218 217 217 221 222 216 217 213 203 197 189 188 186 190 189 192 185 190 188 189 198 204 215 202 201 194 183 147 124 115 103
251 235 226 219 214 217 232 228 232 230 224 221 222 214 220 228 217 209 212 216 206 203 197 194 191 191 190 193 196 192 187 191 201 207 214 220 208 198 200 184 154 129 121
254 247 217 216 222 228 240 235 236 231 222 227 222 222 222 216 218 211 219 219 211 208 198 196 196 201 194 194 192 186 194 197 193 185 188 184 190 186 185 180 170 155 128
266 245 226 216 220 227 230 230 231 230 235 232 224 224 218 214 217 218 213 213 210 206 198 199 198 195 201 192 184 172 181 196 201 195 191 182 175 178 181 188 191 194 180
260 240 222 215 215 220 222 223 230 226 223 233 224 220 224 220 223 226 217 215 213 207 201 200 197 197 190 196 189 179 175 187 186 193 205 196 188 182 190 193 192 201 208
250 226 217 216 223 219 235 245 231 226 226 232 226 223 227 224 223 224 219 220 214 199 199 200 199 192 198 201 191 176 157 170 190 190 190 200 203 196 199 200 175 191 204
181 218 225 239 235 239 242 241 244 237 227 222 225 231 223 225 221 223 223 219 212 206 205 200 203 206 197 199 204 183 157 180 164 178 188 193 197 206 215 213 203 196 193
63 68 266 267 261 248 241 236 243 244 240 241 231 229 233 224 223 223 222 224 218 213 206 204 208 210 208 200 199 199 194 197 161 165 192 205 204 196 208 206 223 204 188
10 6 12 9 289 267 255 247 243 239 251 255 256 247 235 232 227 222 227 220 220 213 211 206 204 207 213 211 203 195 199 199 196 176 174 185 202 194 201 195 200 207 203
9 7 5 356 341 301 266 250 248 258 252 248 252 252 245 237 232 223 220 219 221 216 214 211 211 212 215 212 212 198 205 195 193 191 183 183 184 180 188 175 203 210 207
Height
1495 1493 1494 1498 1501 1504 1507 1510 1513 1515 1518 1521 1524 1527 1530 1532 1535 1537 1539 1541 1542 1544 1545 1547 1549 1551 1552 1553 1553 1554 1555 1555 1556 1556 1555 1556 1555 1555 1555 1556 1555 1555 1556
1491 1490 1491 1494 1498 1502 1505 1508 1511 1514 1517 1520 1523 1526 1529 1532 1534 1537 1539 1541 1543 1544 1545 1547 1549 1550 1552 1553 1554 1555 1556 1556 1555 1556 1556 1556 1555 1556 1556 1557 1557 1556 1558
1488 1491 1491 1493 1495 1498 1501 1506 1509 1512 1516 1519 1521 1525 1528 1531 1534 1537 1539 1540 1542 1543 1545 1546 1548 1550 1552 1553 1555 1556 1556 1555 1555 1555 1557 1557 1557 1557 1557 1557 1557 1558 1559
1489 1490 1492 1495 1497 1498 1501 1504 1507 1509 1513 1518 1521 1524 1527 1530 1533 1535 1537 1538 1540 1542 1544 1546 1548 1550 1552 1553 1555 1555 1556 1554 1555 1555 1556 1558 1558 1557 1558 1558 1559 1559 1560
1486 1489 1491 1494 1498 1499 1501 1503 1504 1508 1511 1515 1520 1523 1526 1528 1531 1533 1535 1536 1538 1540 1542 1546 1548 1549 1551 1553 1555 1555 1555 1555 1556 1556 1557 1558 1559 1559 1558 1559 1559 1560 1561
1485 1488 1491 1493 1497 1500 1503 1505 1505 1506 1509 1512 1516 1522 1524 1526 1529 1531 1533 1535 1537 1538 1541 1543 1547 1550 1551 1553 1554 1555 1554 1556 1557 1558 1558 1559 1559 1560 1560 1560 1560 1561 1562
1484 1486 1488 1494 1497 1499 1502 1505 1507 1509 1511 1512 1514 1516 1520 1524 1527 1529 1531 1534 1536 1536 1538 1542 1546 1549 1551 1553 1554 1554 1554 1556 1557 1557 1559 1559 1559 1560 1560 1561 1560 1561 1562
1483 1485 1487 1489 1491 1495 1499 1502 1505 1509 1513 1517 1517 1518 1520 1521 1524 1527 1531 1532 1535 1536 1536 1539 1545 1547 1550 1553 1553 1551 1554 1555 1556 1557 1557 1559 1560 1561 1560 1560 1561 1561 1561
1481 1485 1488 1490 1491 1491 1494 1498 1502 1505 1509 1514 1517 1519 1521 1524 1525 1527 1529 1531 1533 1536 1535 1537 1543 1546 1550 1550 1551 1550 1552 1555 1554 1556 1557 1558 1560 1561 1560 1560 1560 1561 1561
1478 1480 1484 1488 1491 1492 1493 1495 1499 1502 1505 1509 1514 1516 1520 1523 1525 1527 1528 1531 1531 1534 1534 1537 1541 1545 1548 1547 1550 1550 1551 1553 1555 1556 1558 1559 1559 1560 1560 1560 1560 1560 1560
1473 1475 1477 1480 1483 1489 1494 1494 1496 1501 1503 1506 1507 1511 1514 1519 1524 1526 1528 1531 1530 1533 1535 1538 1540 1544 1547 1544 1549 1548 1549 1552 1553 1555 1558 1558 1559 1559 1559 1559 1559 1560 1559
1468 1470 1472 1475 1479 1484 1487 1492 1494 1496 1501 1503 1507 1509 1511 1515 1520 1522 1524 1527 1532 1532 1534 1535 1539 1542 1544 1544 1546 1548 1551 1552 1554 1555 1556 1558 1558 1559 1559 1560 1559 1559 1560
1463 1466 1466 1470 1473 1476 1480 1485 1490 1492 1495 1500 1503 1506 1510 1511 1514 1519 1523 1525 1527 1530 1534 1536 1535 1539 1541 1543 1544 1548 1549 1551 1552 1553 1554 1557 1558 1558 1559 1559 1560 1559 1560
1460 1462 1466 1469 1472 1475 1477 1479 1482 1487 1490 1493 1499 1502 1505 1508 1510 1513 1519 1524 1525 1528 1533 1537 1536 1538 1537 1540 1544 1546 1547 1548 1551 1552 1554 1554 1558 1560 1560 1561 1560 1560 1560
1454 1458 1459 1462 1470 1474 1474 1478 1478 1481 1485 1488 1493 1497 1500 1504 1507 1510 1515 1519 1523 1526 1529 1535 1534 1537 1536 1536 1541 1542 1544 1546 1548 1551 1552 1552 1555 1559 1560 1561 1562 1562 1561
1446 1449 1451 1453 1455 1464 1471 1474 1474 1478 1481 1485 1488 1492 1495 1499 1503 1505 1510 1515 1519 1522 1525 1529 1532 1535 1535 1534 1537 1542 1545 1543 1546 1548 1549 1552 1555 1557 1559 1560 1563 1564 1562
1443 1445 1448 1451 1455 1455 1460 1467 1471 1474 1476 1479 1482 1486 1491 1494 1498 1502 1503 1508 1514 1520 1522 1525 1528 1532 1534 1533 1536 1540 1543 1545 1545 1547 1549 1552 1553 1555 1557 1557 1563 1565 1563
1439 1439 1445 1446 1449 1452 1459 1460 1465 1468 1470 1474 1477 1480 1483 1489 1492 1495 1498 1503 1509 1515 1520 1521 1524 1527 1531 1531 1533 1538 1542 1545 1545 1545 1548 1551 1553 1553 1555 1556 1559 1563 1564
1433 1432 1435 1439 1440 1445 1451 1453 1459 1462 1466 1468 1470 1475 1478 1481 1487 1491 1496 1500 1504 1510 1515 1517 1519 1523 1526 1530 1531 1536 1540 1542 1545 1544 1546 1550 1550 1553 1554 1554 1558 1559 1562
1428 1428 1430 1432 1435 1439 1441 1446 1451 1455 1460 1463 1466 1470 1474 1476 1481 1487 1490 1495 1499 1504 1509 1513 1515 1518 1524 1526 1528 1534 1538 1541 1543 1543 1546 1547 1551 1550 1552 1555 1557 1559 1560
1419 1422 1427 1430 1430 1433 1434 1441 1445 1447 1452 1456 1458 1463 1468 1470 1476 1482 1486 1490 1494 1498 1502 1505 1508 1512 1519 1524 1525 1531 1536 1540 1543 1545 1544 1546 1548 1550 1550 1553 1556 1558 1559
1415 1419 1421 1426 1428 1431 1439 1439 1441 1444 1445 1450 1453 1457 1460 1464 1468 1474 1479 1484 1489 1493 1495 1499 1501 1506 1513 1518 1519 1523 1532 1539 1541 1542 1544 1546 1546 1547 1548 1551 1555 1556 1558
1414 1421 1423 1429 1432 1429 1434 1438 1441 1441 1442 1443 1446 1451 1454 1458 1462 1467 1472 1476 1481 1486 1488 1491 1493 1496 1501 1511 1513 1514 1522 1527 1535 1540 1541 1542 1544 1543 1545 1548 1552 1555 1557
1421 1424 1426 1430 1431 1427 1427 1431 1434 1437 1440 1441 1442 1445 1449 1452 1455 1460 1466 1471 1474 1480 1483 1484 1486 1488 1492 1499 1509 1511 1511 1511 1519 1533 1538 1541 1541 1542 1545 1547 1547 1552 1555
1426 1427 1427 1427 1427 1425 1423 1426 1428 1430 1434 1436 1440 1439 1440 1444 1448 1452 1457 1462 1469 1472 1477 1480 1480 1483 1485 1492 1499 1505 1506 1508 1510 1514 1526 1533 1538 1540 1543 1546 1548 1549 1551
1425 1428 1428 1427 1426 1423 1421 1421 1421 1426 1430 1432 1432 1433 1434 1436 1439 1443 1447 1454 1460 1466 1469 1473 1476 1477 1479 1485 1493 1501 1501 1499 1502 1507 1515 1524 1530 1536 1540 1544 1546 1549 1552